When you browse on this site, cookies collect data to enhance your experience and personalize the content and advertising you see.
Visit our Privacy Policy to learn more. By continuing to use the site, you agree to this use of cookies and data.
  • In Hungary
  • List of Countries
  • For 7 days
  • Water Temperature
  • Satellite Maps
  • Weather Map
  • News
  • Weather Widgets
  • user-avatar
    Login

    Hourly Weather Vetkhalivka

    Today, 18 July, Thursday

    Time Temperature Precipitation Wind Pressure Humidity
    00:00 +14°C° 0 mm 2 mps 741 mmHg 85%
    01:00 +14°C° 0 mm 2 mps 741 mmHg 87%
    02:00 +14°C° 0 mm 2 mps 741 mmHg 89%
    03:00 +14°C° 0 mm 2 mps 741 mmHg 90%
    04:00 +13°C° 0 mm 2 mps 741 mmHg 91%
    05:00 +13°C° 0 mm 2 mps 742 mmHg 93%
    06:00 +14°C° 0 mm 3 mps 742 mmHg 87%
    07:00 +16°C° 0 mm 3 mps 742 mmHg 81%
    08:00 +17°C° 0 mm 3 mps 742 mmHg 75%
    09:00 +19°C° 0 mm 4 mps 742 mmHg 70%
    10:00 +20°C° 0 mm 4 mps 743 mmHg 65%
    11:00 +21°C° 0 mm 4 mps 743 mmHg 60%
    12:00 +21°C° 0.2 mm 5 mps 743 mmHg 60%
    13:00 +21°C° 0.2 mm 5 mps 743 mmHg 61%
    14:00 +21°C° 0.2 mm 5 mps 743 mmHg 62%
    15:00 +21°C° 0.1 mm 5 mps 743 mmHg 61%
    16:00 +21°C° 0.1 mm 4 mps 743 mmHg 61%
    17:00 +21°C° 0.1 mm 4 mps 744 mmHg 60%
    18:00 +20°C° 0 mm 4 mps 744 mmHg 67%
    19:00 +18°C° 0 mm 3 mps 744 mmHg 73%
    20:00 +16°C° 0 mm 2 mps 744 mmHg 80%
    21:00 +16°C° 0 mm 3 mps 744 mmHg 83%
    22:00 +14°C° 0 mm 3 mps 744 mmHg 86%
    23:00 +14°C° 0 mm 3 mps 745 mmHg 90%

    Tomorrow, 19 July, Friday

    Time Temperature Precipitation Wind Pressure Humidity
    00:00 +13°C° 0 mm 3 mps 745 mmHg 91%
    01:00 +13°C° 0 mm 3 mps 745 mmHg 93%
    02:00 +13°C° 0 mm 3 mps 745 mmHg 94%
    03:00 +13°C° 0 mm 3 mps 745 mmHg 94%
    04:00 +13°C° 0 mm 3 mps 745 mmHg 94%
    05:00 +13°C° 0 mm 3 mps 745 mmHg 95%
    06:00 +16°C° 0 mm 3 mps 746 mmHg 88%
    07:00 +18°C° 0 mm 4 mps 746 mmHg 81%
    08:00 +19°C° 0 mm 5 mps 747 mmHg 74%
    09:00 +21°C° 0 mm 5 mps 747 mmHg 70%
    10:00 +22°C° 0 mm 5 mps 747 mmHg 66%
    11:00 +23°C° 0 mm 5 mps 747 mmHg 62%
    12:00 +23°C° 0.3 mm 5 mps 747 mmHg 62%
    13:00 +23°C° 0.3 mm 5 mps 747 mmHg 61%
    14:00 +25°C° 0.3 mm 5 mps 747 mmHg 61%
    15:00 +25°C° 0.1 mm 5 mps 747 mmHg 61%
    16:00 +25°C° 0.1 mm 5 mps 747 mmHg 62%
    17:00 +25°C° 0.1 mm 4 mps 747 mmHg 62%
    18:00 +22°C° 0 mm 4 mps 747 mmHg 68%
    19:00 +20°C° 0 mm 3 mps 748 mmHg 74%
    20:00 +18°C° 0 mm 2 mps 748 mmHg 80%
    21:00 +18°C° 0 mm 2 mps 748 mmHg 82%
    22:00 +17°C° 0 mm 2 mps 749 mmHg 84%
    23:00 +16°C° 0 mm 2 mps 749 mmHg 86%

    Day after tomorrow, 20 July, Saturday

    Time Temperature Precipitation Wind Pressure Humidity
    00:00 +16°C° 0 mm 2 mps 749 mmHg 87%
    01:00 +16°C° 0 mm 2 mps 749 mmHg 88%
    02:00 +16°C° 0 mm 2 mps 749 mmHg 89%
    03:00 +16°C° 0 mm 2 mps 749 mmHg 89%
    04:00 +16°C° 0 mm 2 mps 749 mmHg 89%
    05:00 +16°C° 0 mm 2 mps 750 mmHg 89%
    06:00 +18°C° 0 mm 2 mps 750 mmHg 83%
    07:00 +20°C° 0 mm 2 mps 750 mmHg 76%
    08:00 +21°C° 0 mm 2 mps 750 mmHg 69%
    09:00 +24°C° 0 mm 2 mps 750 mmHg 64%
    10:00 +25°C° 0 mm 3 mps 751 mmHg 59%
    11:00 +26°C° 0 mm 3 mps 751 mmHg 54%
    12:00 +26°C° 0 mm 3 mps 751 mmHg 54%
    13:00 +26°C° 0 mm 2 mps 751 mmHg 54%
    14:00 +26°C° 0 mm 2 mps 751 mmHg 54%
    15:00 +26°C° 0 mm 2 mps 751 mmHg 55%
    16:00 +26°C° 0 mm 2 mps 751 mmHg 56%
    17:00 +27°C° 0 mm 2 mps 750 mmHg 57%
    18:00 +25°C° 0 mm 2 mps 751 mmHg 62%
    19:00 +23°C° 0 mm 1 mps 751 mmHg 67%
    20:00 +21°C° 0 mm 1 mps 751 mmHg 71%
    21:00 +21°C° 0 mm 1 mps 751 mmHg 74%
    22:00 +20°C° 0 mm 1 mps 751 mmHg 76%
    23:00 +19°C° 0 mm 1 mps 751 mmHg 79%

    21 July, Sunday

    Time Temperature Precipitation Wind Pressure Humidity
    00:00 +19°C° 0 mm 1 mps 751 mmHg 78%
    01:00 +19°C° 0 mm 1 mps 751 mmHg 78%
    02:00 +19°C° 0 mm 1 mps 751 mmHg 78%
    03:00 +19°C° 0 mm 1 mps 751 mmHg 80%
    04:00 +19°C° 0 mm 1 mps 751 mmHg 81%
    05:00 +18°C° 0 mm 1 mps 751 mmHg 83%
    06:00 +20°C° 0 mm 1 mps 751 mmHg 77%
    07:00 +22°C° 0 mm 1 mps 751 mmHg 71%
    08:00 +24°C° 0 mm 1 mps 751 mmHg 65%
    09:00 +25°C° 0 mm 1 mps 751 mmHg 60%
    10:00 +26°C° 0 mm 1 mps 752 mmHg 54%
    11:00 +27°C° 0 mm 2 mps 752 mmHg 48%
    12:00 +27°C° 0 mm 2 mps 751 mmHg 47%
    13:00 +28°C° 0 mm 2 mps 751 mmHg 45%
    14:00 +28°C° 0 mm 2 mps 751 mmHg 44%
    15:00 +28°C° 0 mm 2 mps 751 mmHg 46%
    16:00 +27°C° 0 mm 2 mps 751 mmHg 48%
    17:00 +27°C° 0 mm 2 mps 751 mmHg 50%
    18:00 +25°C° 0 mm 2 mps 751 mmHg 55%
    19:00 +23°C° 0 mm 1 mps 751 mmHg 61%
    20:00 +22°C° 0 mm 1 mps 751 mmHg 66%
    21:00 +21°C° 0 mm 1 mps 751 mmHg 70%
    22:00 +20°C° 0 mm 1 mps 751 mmHg 73%
    23:00 +20°C° 0 mm 1 mps 751 mmHg 77%

    22 July, Monday

    Time Temperature Precipitation Wind Pressure Humidity
    00:00 +19°C° 0 mm 1 mps 751 mmHg 78%
    01:00 +19°C° 0 mm 1 mps 751 mmHg 79%
    02:00 +18°C° 0 mm 1 mps 751 mmHg 79%
    03:00 +18°C° 0 mm 1 mps 751 mmHg 80%
    04:00 +18°C° 0 mm 1 mps 751 mmHg 80%
    05:00 +16°C° 0 mm 0 mps 751 mmHg 80%
    06:00 +18°C° 0 mm 0 mps 751 mmHg 74%
    07:00 +20°C° 0 mm 0 mps 751 mmHg 69%
    08:00 +22°C° 0 mm 0 mps 751 mmHg 63%
    09:00 +23°C° 0 mm 0 mps 751 mmHg 58%
    10:00 +25°C° 0 mm 0 mps 751 mmHg 53%
    11:00 +26°C° 0 mm 0 mps 751 mmHg 49%
    12:00 +26°C° 0 mm 0 mps 750 mmHg 48%
    13:00 +26°C° 0 mm 0 mps 750 mmHg 47%
    14:00 +26°C° 0 mm 0 mps 750 mmHg 45%
    15:00 +26°C° 0 mm 0 mps 749 mmHg 48%
    16:00 +26°C° 0 mm 0 mps 749 mmHg 50%
    17:00 +25°C° 0 mm 0 mps 749 mmHg 53%
    18:00 +26°C° 0 mm 1 mps 749 mmHg 56%
    19:00 +24°C° 0 mm 1 mps 749 mmHg 59%
    20:00 +22°C° 0 mm 1 mps 748 mmHg 62%
    21:00 +22°C° 0 mm 1 mps 748 mmHg 64%
    22:00 +20°C° 0 mm 2 mps 748 mmHg 66%
    23:00 +20°C° 0 mm 2 mps 748 mmHg 68%

    23 July, Tuesday

    Time Temperature Precipitation Wind Pressure Humidity
    00:00 +19°C° 0 mm 2 mps 748 mmHg 68%
    01:00 +19°C° 0 mm 2 mps 748 mmHg 68%
    02:00 +19°C° 0 mm 2 mps 747 mmHg 68%
    03:00 +19°C° 0 mm 2 mps 747 mmHg 70%
    04:00 +19°C° 0 mm 2 mps 747 mmHg 71%
    05:00 +19°C° 0 mm 2 mps 747 mmHg 73%
    06:00 +20°C° 0 mm 2 mps 747 mmHg 71%
    07:00 +22°C° 0 mm 3 mps 747 mmHg 69%
    08:00 +24°C° 0 mm 3 mps 747 mmHg 67%
    09:00 +25°C° 0.2 mm 3 mps 747 mmHg 64%
    10:00 +26°C° 0.2 mm 3 mps 747 mmHg 61%
    11:00 +27°C° 0.2 mm 3 mps 747 mmHg 57%
    12:00 +27°C° 0 mm 3 mps 747 mmHg 55%
    13:00 +28°C° 0 mm 3 mps 747 mmHg 52%
    14:00 +28°C° 0 mm 3 mps 747 mmHg 50%
    15:00 +28°C° 0 mm 3 mps 747 mmHg 52%
    16:00 +27°C° 0 mm 3 mps 747 mmHg 54%
    17:00 +27°C° 0 mm 3 mps 747 mmHg 56%
    18:00 +25°C° 0 mm 3 mps 747 mmHg 64%
    19:00 +22°C° 0 mm 3 mps 747 mmHg 72%
    20:00 +20°C° 0 mm 3 mps 747 mmHg 80%
    21:00 +20°C° 0 mm 3 mps 747 mmHg 82%
    22:00 +19°C° 0 mm 3 mps 747 mmHg 84%
    23:00 +18°C° 0 mm 3 mps 747 mmHg 86%
    Show more